Content
SEND FEEDBACK

Daily
Averages
Monthly
Summary
United States of America

YIGO, GUAM


Home > North America > United States > Guam
Elevation: 162 meters     Latitude: 13 32N     Longitude: 144 53E

WEATHER
 
SELECT A DAY
Number of Records: 209,106;   Date Range: 1/1/95 - 8/12/14
 
SHARE

PRINT THIS DATA

[ ← Previous Day ]
WEATHER ALMANAC - 4 JULY, 2014
[ Next Day → ]
[ °F ]   °C
Weather ElementAverageHighLow
Temperature27.7 °C29.4 °C (1:54 pm)26 °C (2:01 am)
Dewpoint24.3 °C26 °C (1:04 am)22.8 °C (4:54 pm)
Humidity81.7 %94 % (1:04 am)72 % (2:54 pm)
Barometer1005.1 hPa1008.8 hPa (8:46 pm)1002.4 hPa (2:54 am)
Wind Speed29 km/h42.6 km/h (2:21 pm)
Wind Gust72.3 km/h (2:21 pm)
Weather ElementAverage
Visibility14.3 km
Wind DirectionSSE (148.4 °)

Weather ElementTotal
Precipitation6.35 mm
Cooling Degree Days9.4 (Base 18.3)
Growing Degree Days17.7 (Base 10)
Averaged from 45 records on 4 July, 2014
WEATHER CONDITIONS BREAKOUT
WIND DIRECTION BREAKOUT
WEATHER BY HOUR - 4 JULY, 2014
[ °F ]   °C
Local TimeTemperatureDewpointHumidityBarometerVisibilityWind DirectionWind SpeedGust SpeedPrecipitationEventsConditions
12:54 AM26.7 °C25 °C90 %1003 hPa8 kmESE (110°)31.5 km/h57.5 km/h1.27 mmRainLight Rain
12:56 AM27 °C25 °C89 %1003.7 hPa11.3 kmEast (100°)33.3 km/h57.5 km/h0 mmRainLight Rain
1:04 AM27 °C26 °C94 %1003.4 hPa16.1 kmEast (100°)24.1 km/h50.1 km/h0 mmMostly Cloudy
1:54 AM26.1 °C24.4 °C90 %1003 hPa8 kmSE (130°)25.9 km/h62.9 km/h0.25 mmRainRain
2:01 AM26 °C24 °C89 %1003.7 hPa8 kmESE (110°)29.6 km/h50.1 km/h0.25 mmRainRain
2:47 AM27 °C25 °C89 %1003 hPa16.1 kmESE (120°)29.6 km/h59.2 km/h0.51 mmMostly Cloudy
2:54 AM27.2 °C25 °C88 %1002.4 hPa14.5 kmESE (120°)40.7 km/h62.9 km/h0.51 mmRainLight Rain
3:01 AM27 °C24 °C84 %1003 hPa16.1 kmSE (130°)29.6 km/h62.9 km/h0 mmRainLight Rain
3:54 AM27.8 °C23.9 °C79 %1002.4 hPa16.1 kmSE (130°)27.8 km/h59.2 km/h0 mmMostly Cloudy
4:11 AM28 °C23 °C74 %1003.4 hPa16.1 kmSE (130°)31.5 km/h57.5 km/hMostly Cloudy
4:54 AM28.3 °C24.4 °C79 %1003 hPa16.1 kmSE (130°)22.2 km/h46.3 km/hOvercast
5:24 AM27 °C24 °C84 %1004.1 hPa12.9 kmESE (110°)35.2 km/h51.8 km/h0 mmRainLight Rain
5:54 AM27.8 °C24.4 °C82 %1003 hPa16.1 kmSE (130°)24.1 km/h46.3 km/h0 mmOvercast
6:01 AM28 °C24 °C79 %1004.1 hPa16.1 kmSE (130°)24.1 km/h46.3 km/hOvercast
6:13 AM28 °C24 °C79 %1003.7 hPa16.1 kmSE (130°)29.6 km/h50.1 km/hOvercast
6:54 AM27.8 °C23.9 °C79 %1003 hPa16.1 kmESE (120°)33.3 km/h57.5 km/hScattered Clouds
7:35 AM28 °C25 °C84 %1004.7 hPa16.1 kmESE (120°)25.9 km/h50.1 km/h0 mmMostly Cloudy
7:54 AM27.8 °C23.9 °C79 %1004.4 hPa16.1 kmSE (140°)38.9 km/h62.9 km/h0 mmMostly Cloudy
8:54 AM27.2 °C24.4 °C85 %1004.7 hPa12.9 kmSSE (150°)29.6 km/h44.4 km/h0.25 mmMostly Cloudy
9:20 AM27 °C24 °C84 %1005.4 hPa16.1 kmSE (130°)29.6 km/h42.6 km/hOvercast
9:54 AM27.2 °C25.6 °C91 %1004.7 hPa4.8 kmSSE (150°)33.3 km/h48.1 km/h0.51 mmRainLight Rain
10:54 AM28.3 °C25 °C82 %1004.7 hPa16.1 kmSSE (150°)29.6 km/h46.3 km/h0 mmOvercast
11:54 AM28.3 °C24.4 °C79 %1004.7 hPa16.1 kmSouth (170°)35.2 km/h61.2 km/h0 mmOvercast
12:06 PM27 °C25 °C89 %1005.8 hPa6.4 kmSSE (160°)35.2 km/h57.5 km/h0 mmRainLight Rain
12:13 PM27 °C26 °C94 %1005.8 hPa16.1 kmSSE (160°)33.3 km/h55.5 km/h0 mmRainLight Rain
12:54 PM28.9 °C24.4 °C76 %1004.4 hPa16.1 kmSSE (160°)35.2 km/h57.5 km/h0.25 mmMostly Cloudy
1:54 PM29.4 °C24.4 °C74 %1004.1 hPa16.1 kmSSE (160°)40.7 km/h57.5 km/hOvercast
2:08 PM29 °C24 °C74 %1004.7 hPa16.1 kmSSE (160°)37 km/h66.6 km/hMostly Cloudy
2:21 PM29 °C24 °C74 %1004.7 hPa16.1 kmSouth (170°)42.6 km/h72.3 km/hMostly Cloudy
2:54 PM29.4 °C23.9 °C72 %1004.4 hPa16.1 kmSouth (170°)38.9 km/h57.5 km/hMostly Cloudy
3:36 PM28 °C24 °C79 %1005.8 hPa16.1 kmSSE (160°)27.8 km/h55.5 km/h0 mmRainLight Rain
3:54 PM27.8 °C25 °C85 %1005.1 hPa11.3 kmSouth (180°)24.1 km/h55.5 km/h0.76 mmRainLight Rain
4:27 PM28 °C24 °C79 %1005.4 hPa16.1 kmSouth (180°)24.1 km/h48.1 km/h0 mmOvercast
4:54 PM28.3 °C22.8 °C72 %1005.1 hPa16.1 kmSouth (170°)24.1 km/h50.1 km/h0 mmOvercast
5:04 PM28 °C23 °C74 %1006.1 hPa16.1 kmSouth (170°)27.8 km/h50.1 km/hOvercast
5:46 PM28 °C24 °C79 %1006.4 hPa16.1 kmSouth (170°)22.2 km/h40.7 km/h0 mmOvercast
5:54 PM28.3 °C23.9 °C77 %1005.8 hPa16.1 kmSouth (170°)25.9 km/h50.1 km/h0 mmOvercast
6:54 PM28.3 °C22.8 °C72 %1006.4 hPa16.1 kmSouth (180°)16.7 km/h42.6 km/hMostly Cloudy
7:54 PM28.9 °C23.9 °C74 %1007.1 hPa16.1 kmSSE (160°)22.2 km/h38.9 km/hOvercast
8:16 PM29 °C24 °C74 %1008.5 hPa11.3 kmSouth (180°)31.5 km/h42.6 km/h0 mmRainLight Rain
8:46 PM27 °C25 °C89 %1008.8 hPa9.7 kmSouth (170°)22.2 km/h38.9 km/h0.76 mmRainLight Rain
8:54 PM26.7 °C25.6 °C94 %1008.1 hPa12.9 kmSouth (170°)20.4 km/h1.02 mmRainLight Rain
9:54 PM26.7 °C23.9 °C85 %1008.1 hPa16.1 kmSouth (180°)16.7 km/h31.5 km/h0 mmScattered Clouds
10:54 PM27.8 °C24.4 °C82 %1008.8 hPa16.1 kmSouth (180°)16.7 km/h31.5 km/hScattered Clouds
11:54 PM27.8 °C23.3 °C76 %1008.5 hPa16.1 kmSouth (180°)22.2 km/h35.2 km/hScattered Clouds
Hourly data recorded from PGUM, located 0 kilometers away from Yigo, Guam







STORIES FROM OUR PARTNERS